LANDSAT 5

Satellite information

Favourite Embed

Satellite Type and Status

PAYLOADIN ORBIT

Key statistics

Satellite LANDSAT 5 at a glance.

Uptime

15103

Days in orbit

Revolutions

≈ 15.0

Per day

Orbit

SSO

Sun Synchronous Orbit

Inclination

98.1

Latest

Satellite identification and parameters

Extended collection of information and parameters for LANDSAT 5.

Object identification

Identified? True

Debris? False

Object name: LANDSAT 5

International designator: 1984-021A

Object number (NORAD): 14780

Object ID (CCSDS): 14780

Country: UNITED STATES OF AMERICA (US)

Current information (Y/N): Y

RCS size: LARGE

Orbital parameters

Period: 95.861 minutes

Inclination: 98.0867 deg

SMA: 6938.316 km

Apoapsis: 610.294 km

Periapsis: 510.067 km

RAAN: 87.0521 deg

Eccentricy: 0.0072227

Argument of periapsis: 193.2274 deg

Mean anomaly: 166.7058 deg

Mean motion: 15.02178933 rev/day

Mean motion (dot): 0.00001553 rev/day2

B* drag term: 0.00011676 1/REarth

Two-line elements (TLE)

Creation date: July 6, 2025, 6:05 p.m.

Reference frame: TEME

Reference center: EARTH

Epoch: July 6, 2025, 2:08 p.m. UTC

TLE line 0: 0 LANDSAT 5

TLE line 1: 1 14780U 84021A 25187.58891562 .00001553 00000-0 11676-3 0 9990

TLE line 2: 2 14780 98.0867 87.0521 0072227 193.2274 166.7058 15.02178933739462

Live tracking on map

Real-time ground track for satellite LANDSAT 5.

In-orbit conjunctions

A list of the most updated potential collisions computed for object LANDSAT 5.

Target Orbit TCA Probability of collision Miss distance Type
SL-8 DEB LEO 2025-06-29 01:57:19 0.001741958 53.0 (m) DEBRIS
SL-8 DEB LEO 2025-06-09 13:18:44 0.0136377 71.0 (m) DEBRIS

Associated space launch

Earth resources monitoring satellite

LANDSAT 5 was lifted into orbit during the mission ‘Delta 3920 | Landsat 5’, on board a Delta 3920 space rocket.

The launch took place on March 1, 1984, 5:59 p.m. from Space Launch Complex 2W.

For more information about the launch, click the button.

Launch to space Delta 3920 | Landsat 5
Delta 3920 | Landsat 5

Agency: N/A

Status: Launch Successful

Launch date: March 1, 1984, 5:59 p.m. UTC

Rocket: Delta 3920

Launch pad: Space Launch Complex 2W

Location: Vandenberg SFB, CA, USA

...

Latest news about this satellite

There are no fresh news available about this satellite. Check back as we update our databases every day.


Newsletter sign-up

Weekly statistics, charts and insights to help you stay on top of the space industry.